Address 0x7163b314d7c7c0197cd652f816faa0f9d03074a1

Overview

Balance:
146.472822975187134587 CLV

CLV Value:
$14.12 (@ $0.10/CLV)

Token:
Txn Hash Method
Block
From
To
Value [Txn Fee]
0x2ee36cb01df6ab28fb5c87c21a592dd5ac5065e531c27ec71369d7d173772cd3Swap Exact Token...18601902022-09-26 14:22:184 days 2 hrs ago0x7163b314d7c7c0197cd652f816faa0f9d03074a1OUT 0x5d91eaee3a8b2a73b0505c9585cbfcd81d972d7e0 CLV0.0116484
0x7bc87aef868930b68caed02d62cb5f03c71402b4e0ca9f81bb099fb86117afd8Withdraw18601872022-09-26 14:21:424 days 2 hrs ago0x7163b314d7c7c0197cd652f816faa0f9d03074a1OUT 0x67dc6e39a46efcbd9ec7bb8d490eff6df9c9b0470 CLV0.0109374
0x89fd5dd5170bbaad263dcdc4dd23b4c52e6e8f784c307c5f499ee14b8906006bSwap Exact Token...17992452022-09-17 23:40:1812 days 17 hrs ago0x7163b314d7c7c0197cd652f816faa0f9d03074a1OUT 0x5d91eaee3a8b2a73b0505c9585cbfcd81d972d7e0 CLV0.0116484
0x0ef870661a336aca9c702585f8eed16d25027cd950663bcdab5ce034b37f3eadWithdraw17992402022-09-17 23:39:1812 days 17 hrs ago0x7163b314d7c7c0197cd652f816faa0f9d03074a1OUT 0x67dc6e39a46efcbd9ec7bb8d490eff6df9c9b0470 CLV0.0109374
0xdf79c2970c3de918eb5c48a2225e33f505728b37a12b3f9f4a31eaa1be302050Swap Exact Token...17076822022-09-04 15:15:1226 days 1 hr ago0x7163b314d7c7c0197cd652f816faa0f9d03074a1OUT 0x5d91eaee3a8b2a73b0505c9585cbfcd81d972d7e0 CLV0.0116484
0xe00e6a7aa9090fc3e076fa379b9296248933994ecd4cde9f9c1af1ffc711734aWithdraw17076562022-09-04 15:09:5426 days 1 hr ago0x7163b314d7c7c0197cd652f816faa0f9d03074a1OUT 0x67dc6e39a46efcbd9ec7bb8d490eff6df9c9b0470 CLV0.0109374
0x9189425c9de28e4056cc59ecd7b917cca8e12b26a13be4683b7041e3b953ed83Deposit15969782022-08-19 11:48:1842 days 5 hrs ago0x7163b314d7c7c0197cd652f816faa0f9d03074a1OUT 0x18d1a3f485d5de49654051090deae9aa550764d10 CLV0.0231968
0xd34fe39226c36a95b60e2b2db54629a009c2d2e3f73981b7bde38ac25d4ba257Deposit15969752022-08-19 11:47:4242 days 5 hrs ago0x7163b314d7c7c0197cd652f816faa0f9d03074a1OUT 0x03bfdda91e624a2a0238b728635a2f592a3072d70 CLV0.00077693
0x195cfe02493ed2181740f3aa0db9b218aed4b6d24e9d273c3ee419ee2aaf2657Deposit15963262022-08-19 9:30:4242 days 7 hrs ago0x7163b314d7c7c0197cd652f816faa0f9d03074a1OUT 0x18d1a3f485d5de49654051090deae9aa550764d10 CLV0.0251156
0x773ab57b6d88c5325af07bcc7393369e05c9698bd8f158279027ad958043a9b3Approve15963232022-08-19 9:30:0642 days 7 hrs ago0x7163b314d7c7c0197cd652f816faa0f9d03074a1OUT 0x03bfdda91e624a2a0238b728635a2f592a3072d70 CLV0.00044503
0x809a648c912ca41f574b11bfdd0503179b115583d7bc1ec707a26c58a5913453Withdraw15963212022-08-19 9:29:4242 days 7 hrs ago0x7163b314d7c7c0197cd652f816faa0f9d03074a1OUT 0x67dc6e39a46efcbd9ec7bb8d490eff6df9c9b0470 CLV0.0109374
0xaa27947be7d5911b04c75c345332a0c3bb21e741a0fd3ff6dc7cf2e7d2684db7Deposit15600262022-08-13 22:41:4247 days 18 hrs ago0x7163b314d7c7c0197cd652f816faa0f9d03074a1OUT 0x03bfdda91e624a2a0238b728635a2f592a3072d70 CLV0.00388405
0x1b1779c5c3e3be982e7c9a938c9668d4f5e5902e79e9dc2f4c62245ef9908daeApprove15600222022-08-13 22:40:5447 days 18 hrs ago0x7163b314d7c7c0197cd652f816faa0f9d03074a1OUT 0xbea4928632e482a0a1241b38f596a311ad7b98b10 CLV0.00222625
0x96463e3238e62fea1150f10da0c042f0235c10aa6b87ca17580556f53e5b0785Withdraw15600092022-08-13 22:38:1847 days 18 hrs ago0x7163b314d7c7c0197cd652f816faa0f9d03074a1OUT 0x67dc6e39a46efcbd9ec7bb8d490eff6df9c9b0470 CLV0.0090174
0xb1ec06d24492bfddda7ddbb4b2ecf0fc3331e2089858948ed7592d8918d0ca60Deposit15445632022-08-11 14:18:5450 days 2 hrs ago0x7163b314d7c7c0197cd652f816faa0f9d03074a1OUT 0x67dc6e39a46efcbd9ec7bb8d490eff6df9c9b0470 CLV0.0092221
0x4d13ec7dcd3da48c9c1ef5c5fca9dd81723691c8ad30920a217e47bc410e8785Add Liquidity ET...15445572022-08-11 14:17:3050 days 2 hrs ago0x7163b314d7c7c0197cd652f816faa0f9d03074a1OUT 0x5d91eaee3a8b2a73b0505c9585cbfcd81d972d7e4.783957936934803 CLV0.0131284
0x90a68d9deadcc4802e5f413ef10519ac9928449453bc5482a7f427cf2f1ab2e6Swap Exact Token...15445542022-08-11 14:16:4250 days 2 hrs ago0x7163b314d7c7c0197cd652f816faa0f9d03074a1OUT 0x5d91eaee3a8b2a73b0505c9585cbfcd81d972d7e0 CLV0.0135648
0x6384333d664e0178adc913985f05b77141b9fb794080e1e7ab154c7260749562Deposit15445372022-08-11 14:13:0650 days 2 hrs ago0x7163b314d7c7c0197cd652f816faa0f9d03074a1OUT 0x67dc6e39a46efcbd9ec7bb8d490eff6df9c9b0470 CLV0.0092221
0x2baa6e9be7cd1a914c76c1e770900a7f2f29a6f9dfc8757059de2271b83a300dAdd Liquidity ET...15445332022-08-11 14:12:1850 days 2 hrs ago0x7163b314d7c7c0197cd652f816faa0f9d03074a1OUT 0x5d91eaee3a8b2a73b0505c9585cbfcd81d972d7e300 CLV0.0158306
0xe36742d29a02f461f671854e7745ce29c40526ce419b0019451a99963c9a9015Swap Exact Token...15445292022-08-11 14:11:3050 days 2 hrs ago0x7163b314d7c7c0197cd652f816faa0f9d03074a1OUT 0x5d91eaee3a8b2a73b0505c9585cbfcd81d972d7e0 CLV0.013566
0xd5b0eb308f1f5a482c263cb12be845b7ed4b0f9f3ac9b167011443272bfff318Deposit15094852022-08-06 7:05:3055 days 9 hrs ago0x7163b314d7c7c0197cd652f816faa0f9d03074a1OUT 0x67dc6e39a46efcbd9ec7bb8d490eff6df9c9b0470 CLV0.0042589
0x12fca94949bccd5f50c70d2a917c4148b2641d257dbfa9b18fe8be655ebe1d1dApprove15094822022-08-06 7:04:5455 days 9 hrs ago0x7163b314d7c7c0197cd652f816faa0f9d03074a1OUT0x7e5dd7f72229b44274e57fcee6c9669ad0cc1c860 CLV0.0022218
0xeb5a047875d14cbaa12c1b303d1b907884a39c94dd07b4a7d2e8607b37119520Add Liquidity ET...15094782022-08-06 7:04:0655 days 9 hrs ago0x7163b314d7c7c0197cd652f816faa0f9d03074a1OUT 0x5d91eaee3a8b2a73b0505c9585cbfcd81d972d7e84.622631610224768 CLV0.015047
0xe3a3fd16ffa6ecd1439f016caccdd5e9e696004c71d992ca3e07b932ef284236Approve15094752022-08-06 7:03:2455 days 9 hrs ago0x7163b314d7c7c0197cd652f816faa0f9d03074a1OUT 0xbea4928632e482a0a1241b38f596a311ad7b98b10 CLV0.00222625
0x138a8ff0f64ccd4c69323528db3409d3a64f4952303a6bd4b105366af1463b8bTransfer15094582022-08-06 7:00:0055 days 9 hrs ago0x16c2f935792b0d8ac649890ad26fd17661cf87ef IN 0x7163b314d7c7c0197cd652f816faa0f9d03074a190.59895 CLV0.00105
[ Download CSV Export 
Latest 6 internal transactions
Parent Txn Hash Block From To Value
0x2ee36cb01df6ab28fb5c87c21a592dd5ac5065e531c27ec71369d7d173772cd318601902022-09-26 14:22:184 days 2 hrs ago 0x5d91eaee3a8b2a73b0505c9585cbfcd81d972d7e0x7163b314d7c7c0197cd652f816faa0f9d03074a129.07674322151591599 CLV
0x89fd5dd5170bbaad263dcdc4dd23b4c52e6e8f784c307c5f499ee14b8906006b17992452022-09-17 23:40:1812 days 17 hrs ago 0x5d91eaee3a8b2a73b0505c9585cbfcd81d972d7e0x7163b314d7c7c0197cd652f816faa0f9d03074a149.586603788036128465 CLV
0xdf79c2970c3de918eb5c48a2225e33f505728b37a12b3f9f4a31eaa1be30205017076822022-09-04 15:15:1226 days 1 hr ago 0x5d91eaee3a8b2a73b0505c9585cbfcd81d972d7e0x7163b314d7c7c0197cd652f816faa0f9d03074a163.672134502064272354 CLV
0x5fda5d063bf713cce21c6867d2f3e09f9072e978bcc5779ab145fe27d13b678815445542022-08-11 14:16:4250 days 2 hrs ago 0x5d91eaee3a8b2a73b0505c9585cbfcd81d972d7e0x7163b314d7c7c0197cd652f816faa0f9d03074a14.735859705153283374 CLV
0x2baa6e9be7cd1a914c76c1e770900a7f2f29a6f9dfc8757059de2271b83a300d15445332022-08-11 14:12:1850 days 2 hrs ago 0x5d91eaee3a8b2a73b0505c9585cbfcd81d972d7e0x7163b314d7c7c0197cd652f816faa0f9d03074a11 wei
0xe36742d29a02f461f671854e7745ce29c40526ce419b0019451a99963c9a901515445292022-08-11 14:11:3050 days 2 hrs ago 0x5d91eaee3a8b2a73b0505c9585cbfcd81d972d7e0x7163b314d7c7c0197cd652f816faa0f9d03074a1298.450766115577106228 CLV
[ Download CSV Export 
Loading

Contract Name:
0

Compiler Version
0

Optimization Enabled:
0

Other Settings:
-NA-
Block Transaction Gas Used Reward
Age Block Fee Address BC Fee Address Voting Power Jailed Incoming
Block Uncle Number Difficulty Gas Used Reward
Loading
Make sure to use the "Vote Down" button for any spammy posts, and the "Vote Up" for interesting conversations.